| time (UTC) | temp F | wind direction | speed MPH | gust MPH | rain 1hr in | rain 24hr in | rain mn in | humidity % | barometer mb |
| 20260503210037 | 50 | 0.0 | 0.0 | 0.00 | 0.00 | 0.00 | 67 | 1007.4 | |
| 20260503205017 | 50 | 0.0 | 0.0 | 0.00 | 0.00 | 0.00 | 65 | 1007.6 | |
| 20260503204017 | 51 | 0.0 | 0.0 | 0.00 | 0.00 | 0.00 | 60 | 1007.6 | |
| 20260503203017 | 50 | 0.0 | 0.0 | 0.00 | 0.00 | 0.00 | 63 | 1007.6 | |
| 20260503202017 | 48 | 0.0 | 1.0 | 0.00 | 0.00 | 0.00 | 67 | 1007.8 | |
| 20260503201017 | 49 | 0.0 | 1.0 | 0.00 | 0.00 | 0.00 | 64 | 1008.0 | |
| 20260503200017 | 50 | 0.0 | 1.0 | 0.00 | 0.00 | 0.00 | 62 | 1008.1 | |
| 20260503195017 | 51 | 23 | 2.0 | 5.0 | 0.00 | 0.00 | 0.00 | 60 | 1008.4 |
| 20260503194017 | 51 | 23 | 2.0 | 6.0 | 0.00 | 0.00 | 0.00 | 61 | 1008.6 |
| 20260503193017 | 50 | 23 | 3.0 | 6.0 | 0.00 | 0.00 | 0.00 | 65 | 1008.9 |
| 20260503192017 | 50 | 23 | 4.0 | 8.0 | 0.00 | 0.00 | 0.00 | 62 | 1009.0 |
| 20260503191017 | 51 | 0 | 1.0 | 4.0 | 0.00 | 0.00 | 0.00 | 62 | 1009.2 |
| 20260503190037 | 50 | 23 | 2.0 | 4.0 | 0.00 | 0.00 | 0.00 | 59 | 1009.4 |
| 20260503185017 | 51 | 0.0 | 3.0 | 0.00 | 0.00 | 0.00 | 60 | 1009.6 | |
| 20260503184017 | 51 | 0.0 | 2.0 | 0.00 | 0.00 | 0.00 | 61 | 1009.8 | |
| 20260503183037 | 48 | 0.0 | 0.0 | 0.00 | 0.00 | 0.00 | 60 | 1009.8 | |
| 20260503182017 | 48 | 0.0 | 1.0 | 0.00 | 0.00 | 0.00 | 60 | 1009.9 | |
| 20260503181017 | 49 | 0.0 | 0.0 | 0.00 | 0.00 | 0.00 | 59 | 1010.0 | |
| 20260503180017 | 49 | 0.0 | 0.0 | 0.00 | 0.00 | 0.00 | 60 | 1010.1 | |
| 20260503175016 | 49 | 0.0 | 1.0 | 0.00 | 0.00 | 0.00 | 60 | 1010.2 | |
| 20260503174017 | 48 | 0.0 | 0.0 | 0.00 | 0.00 | 0.00 | 60 | 1010.3 | |
| 20260503173037 | 47 | 0.0 | 1.0 | 0.00 | 0.00 | 0.00 | 61 | 1010.3 | |
| 20260503172037 | 49 | 0.0 | 1.0 | 0.00 | 0.00 | 0.00 | 61 | 1010.4 | |
| 20260503171017 | 48 | 0.0 | 1.0 | 0.00 | 0.00 | 0.00 | 57 | 1010.4 | |
| 20260503131016 | 47 | 270 | 4.0 | 8.0 | 0.00 | 0.00 | 0.00 | 47 | 1012.6 |
| 20260503081016 | 38 | 0.0 | 0.0 | 0.00 | 0.00 | 0.00 | 82 | 1012.0 | |
| 20260503072016 | 40 | 0.0 | 0.0 | 0.00 | 0.00 | 0.00 | 77 | 1012.0 | |
| 20260503071016 | 40 | 0.0 | 0.0 | 0.00 | 0.00 | 0.00 | 77 | 1012.0 | |
| 20260503055036 | 42 | 0.0 | 0.0 | 0.00 | 0.00 | 0.00 | 71 | 1012.2 | |
| 20260503054036 | 42 | 0.0 | 0.0 | 0.00 | 0.00 | 0.00 | 70 | 1012.3 | |
| 20260503053016 | 42 | 0.0 | 0.0 | 0.00 | 0.00 | 0.00 | 72 | 1012.3 | |
| 20260503052036 | 42 | 0.0 | 0.0 | 0.00 | 0.00 | 0.00 | 72 | 1012.4 | |
| 20260503051016 | 42 | 0.0 | 0.0 | 0.00 | 0.00 | 0.00 | 72 | 1012.5 | |
| 20260503050036 | 43 | 0.0 | 0.0 | 0.00 | 0.00 | 0.00 | 73 | 1012.6 | |
| 20260503045016 | 43 | 0.0 | 0.0 | 0.00 | 0.00 | 0.00 | 72 | 1012.7 | |
| 20260503044016 | 43 | 0.0 | 0.0 | 0.00 | 0.00 | 0.00 | 73 | 1012.7 | |
| 20260503043016 | 43 | 0.0 | 0.0 | 0.00 | 0.00 | 0.00 | 73 | 1012.8 | |
| 20260503042016 | 43 | 0.0 | 0.0 | 0.00 | 0.00 | 0.00 | 72 | 1012.8 | |
| 20260503041016 | 43 | 0.0 | 0.0 | 0.00 | 0.00 | 0.00 | 73 | 1012.8 | |
| 20260503040016 | 43 | 0.0 | 0.0 | 0.00 | 0.00 | 0.00 | 73 | 1012.8 | |
| 20260503035015 | 43 | 0.0 | 0.0 | 0.00 | 0.00 | 0.00 | 73 | 1012.8 | |
| 20260503034015 | 43 | 0.0 | 0.0 | 0.00 | 0.00 | 0.00 | 73 | 1012.8 | |
| 20260503033015 | 43 | 0.0 | 0.0 | 0.00 | 0.00 | 0.00 | 73 | 1012.9 | |
| 20260503032017 | 43 | 0.0 | 0.0 | 0.00 | 0.00 | 0.00 | 72 | 1012.9 | |
| 20260503031017 | 43 | 0.0 | 0.0 | 0.00 | 0.00 | 0.00 | 72 | 1012.9 | |
| 20260503030037 | 44 | 0.0 | 0.0 | 0.00 | 0.00 | 0.00 | 72 | 1012.9 | |
| 20260503025037 | 44 | 0.0 | 0.0 | 0.00 | 0.00 | 0.00 | 73 | 1013.0 | |
| 20260503024017 | 44 | 0.0 | 0.0 | 0.00 | 0.00 | 0.00 | 73 | 1013.1 | |
| 20260503023017 | 44 | 0.0 | 0.0 | 0.00 | 0.00 | 0.00 | 74 | 1013.2 | |
| 20260503022038 | 44 | 0.0 | 0.0 | 0.00 | 0.00 | 0.00 | 73 | 1013.3 | |
| 20260503021037 | 44 | 0.0 | 0.0 | 0.00 | 0.00 | 0.00 | 72 | 1013.4 | |
| 20260503020017 | 44 | 0.0 | 0.0 | 0.00 | 0.00 | 0.00 | 72 | 1013.4 | |
| 20260503015017 | 44 | 0.0 | 0.0 | 0.00 | 0.00 | 0.00 | 73 | 1013.3 | |
| 20260503014017 | 44 | 0.0 | 0.0 | 0.00 | 0.00 | 0.00 | 73 | 1013.3 | |
| 20260503013017 | 44 | 0.0 | 0.0 | 0.00 | 0.00 | 0.00 | 73 | 1013.3 | |
| 20260503012017 | 44 | 0.0 | 0.0 | 0.00 | 0.00 | 0.00 | 74 | 1013.3 | |
| 20260503011017 | 44 | 0.0 | 0.0 | 0.00 | 0.00 | 0.00 | 73 | 1013.2 | |
| 20260503010017 | 44 | 0.0 | 0.0 | 0.00 | 0.00 | 0.00 | 75 | 1013.2 | |
| 20260503005017 | 45 | 0.0 | 0.0 | 0.00 | 0.00 | 0.00 | 72 | 1013.0 | |
| 20260503004017 | 44 | 0.0 | 0.0 | 0.00 | 0.00 | 0.00 | 72 | 1012.9 | |
| 20260503003017 | 44 | 0.0 | 0.0 | 0.00 | 0.00 | 0.00 | 73 | 1012.8 | |
| 20260503002017 | 44 | 248 | 1.0 | 6.0 | 0.00 | 0.00 | 0.00 | 76 | 1012.8 |
| 20260503001017 | 44 | 270 | 1.0 | 6.0 | 0.00 | 0.00 | 0.00 | 76 | 1012.8 |
| 20260503000017 | 44 | 248 | 3.0 | 8.0 | 0.00 | 0.00 | 0.00 | 75 | 1012.7 |
| 20260502235017 | 44 | 270 | 3.0 | 10.0 | 0.00 | 0.00 | 0.00 | 74 | 1012.7 |
| 20260502234017 | 44 | 270 | 4.0 | 8.0 | 0.00 | 0.00 | 0.00 | 72 | 1012.6 |
| 20260502233017 | 44 | 270 | 4.0 | 10.0 | 0.00 | 0.00 | 0.00 | 73 | 1012.6 |
| 20260502232017 | 44 | 270 | 3.0 | 8.0 | 0.00 | 0.00 | 0.00 | 75 | 1012.6 |
| 20260502231017 | 44 | 293 | 4.0 | 9.0 | 0.00 | 0.00 | 0.00 | 76 | 1012.6 |
| 20260502230017 | 44 | 270 | 3.0 | 7.0 | 0.00 | 0.00 | 0.00 | 76 | 1012.6 |
| 20260502225017 | 44 | 270 | 4.0 | 11.0 | 0.00 | 0.00 | 0.00 | 75 | 1012.6 |
| 20260502224017 | 44 | 270 | 4.0 | 10.0 | 0.00 | 0.00 | 0.00 | 75 | 1012.6 |
| 20260502223017 | 44 | 270 | 4.0 | 11.0 | 0.00 | 0.01 | 0.00 | 75 | 1012.6 |
| 20260502222017 | 44 | 270 | 3.0 | 9.0 | 0.00 | 0.01 | 0.00 | 76 | 1012.6 |
| 20260502221017 | 44 | 270 | 3.0 | 7.0 | 0.00 | 0.01 | 0.00 | 75 | 1012.6 |
| 20260502220037 | 44 | 293 | 5.0 | 12.0 | 0.00 | 0.02 | 0.00 | 75 | 1012.6 |
| 20260502215017 | 44 | 248 | 6.0 | 11.0 | 0.00 | 0.02 | 0.00 | 76 | 1012.6 |
| 20260502214017 | 44 | 293 | 5.0 | 10.0 | 0.00 | 0.02 | 0.00 | 77 | 1012.5 |
| 20260502213017 | 44 | 270 | 4.0 | 13.0 | 0.00 | 0.03 | 0.00 | 78 | 1012.5 |
| 20260502212017 | 44 | 270 | 5.0 | 9.0 | 0.00 | 0.03 | 0.00 | 78 | 1012.5 |
| 20260502211037 | 44 | 293 | 5.0 | 11.0 | 0.00 | 0.03 | 0.00 | 78 | 1012.5 |